Location: Anne Acres
(38.7004°N, 75.0827°W)
Time: 12:26:29
(UTC+00:00)

Envisat - Pass Details

Date: 12 October 2024
Orbit: 761 x 763 km, 98.3° (Epoch: 06 November)

Event Time Altitude Azimuth Distance (km) Brightness Sun altitude
Rises 08:46:58 0° 4° (N) 3,233 6.4 -28.0°
Reaches altitude 10° 08:49:24 10° 356° (N) 2,303 5.6 -27.5°
Enters shadow 08:50:57 19° 347° (NNW) 1,762 4.8 -27.2°
